FENGYUN 1C

Satellite information

Favourite Embed

Satellite Type and Status

PAYLOADIN ORBIT

Key statistics

Satellite FENGYUN 1C at a glance.

Uptime

9714

Days in orbit

Revolutions

≈ 14.3

Per day

Orbit

SSO

Sun Synchronous Orbit

Inclination

98.9

Latest

Satellite identification and parameters

Extended collection of information and parameters for FENGYUN 1C.

Object identification

Identified? True

Debris? False

Object name: FENGYUN 1C

International designator: 1999-025A

Object number (NORAD): 25730

Object ID (CCSDS): 25730

Country: PEOPLES REPUBLIC OF CHINA (PRC)

Current information (Y/N): Y

RCS size: MEDIUM

Orbital parameters

Period: 100.978 minutes

Inclination: 98.8839 deg

SMA: 7183.113 km

Apoapsis: 812.661 km

Periapsis: 797.295 km

RAAN: 52.2068 deg

Eccentricy: 0.0010696

Argument of periapsis: 69.7867 deg

Mean anomaly: 290.4462 deg

Mean motion: 14.26046557 rev/day

Mean motion (dot): 0.00004387 rev/day2

B* drag term: 0.0018536791 1/REarth

Two-line elements (TLE)

Creation date: Dec. 12, 2025, 10:14 a.m.

Reference frame: TEME

Reference center: EARTH

Epoch: Dec. 12, 2025, 4:22 a.m. UTC

TLE line 0: 0 FENGYUN 1C

TLE line 1: 1 25730U 99025A 25346.18235360 .00004387 00000-0 18537-2 0 9998

TLE line 2: 2 25730 98.8839 52.2068 0010696 69.7867 290.4462 14.26046557371291

Live tracking on map

Real-time ground track for satellite FENGYUN 1C.

In-orbit conjunctions

A list of the most updated potential collisions computed for object FENGYUN 1C.

Target Orbit TCA Probability of collision Miss distance Type
FENGYUN 1C DEB SSO 2025-11-10 08:21:49 0.0003112747 435.0 (m) DEBRIS
NOAA 16 DEB SSO 2025-08-08 16:00:04 0.0001182457 848.0 (m) DEBRIS
CZ-6A DEB SSO 2025-05-19 00:14:42 0.0002515981 523.0 (m) DEBRIS
FENGYUN 1C DEB SSO 2025-03-29 11:29:43 0.0001526917 935.0 (m) DEBRIS
THOR ABLESTAR DEB LEO 2025-01-13 03:09:58 0.0001787718 576.0 (m) DEBRIS

Associated space launch

Chinese polar orbiting meteorological satellite

FENGYUN 1C was lifted into orbit during the mission ‘Long March 4B | Feng Yun 1C’, on board a Long March 4B space rocket.

The launch took place on May 10, 1999, 1:33 a.m. from Launch Complex 7.

For more information about the launch, click the button.

Launch to space Long March 4B | Feng Yun 1C
Long March 4B | Feng Yun 1C

Agency: N/A

Status: Launch Successful

Launch date: May 10, 1999, 1:33 a.m. UTC

Rocket: Long March 4B

Launch pad: Launch Complex 7

Location: Taiyuan Satellite Launch Center, People's Republic of China

...

Latest news about this satellite

There are no fresh news available about this satellite. Check back as we update our databases every day.


Newsletter sign-up

Weekly statistics, charts and insights to help you stay on top of the space industry.